User: anonymous   Login
Location: Newark
(48.8519°N, 2.3472°E)
Time: 03:43:07
(UTC+00:00)
Language:

ZACube-1 - Orbit

View from above orbital plane
View from above orbital plane
View from above satellite
View from above satellite

Ground track
Ground track

The orbit data is extracted from the following two-line orbital elements,

1 39417U 13066B   19289.95693995  .00000191  00000-0  30405-4 0  9991
2 39417  97.5626 296.7000 0058938   1.1892 358.9450 14.81161646318845
Epoch (UTC): 16 October 2019 22:57:59
Eccentricity: 0.0058938
inclination: 97.5626°
perigee height: 584 km
apogee height: 667 km
right ascension of ascending node: 296.7000°
argument of perigee: 1.1892°
revolutions per day: 14.81161646
mean anomaly at epoch: 358.9450°
orbit number at epoch: 31884

The dashed part of the orbit path shows where the satellite is in the earth's shadow,  

DLR